Track IRIDIUM 100 now! 10-day predictions IRIDIUM 100 is classified as:
1 42956U 17061B 25199.60146605 .00000041 00000-0 76500-5 0 9993 2 42956 86.4011 164.6173 0002139 82.2109 277.9330 14.34217245406962